AVA225 SAWC-SAWG

Flight info

Callsign AVA225
Flight time 0h 30m
Altitude 15000
Route KIBAR2G KIBAR W52 DEVIS DEVIS2M
Aircraft A320/M-SDE3FGHIRWY/LB1

Departure

Time 2026-05-09 15:16
Airport El Calafate - Commander Armando Tola International Airport (SAWC)

Arrival

Time 2026-05-09 15:47
Airport Piloto Civil Norberto Fernández International Airport (SAWG)
Time Latitude Longitude Altitude Speed Heading
2026-05-09 14:42 -50.28328 -72.05319 641 ft 0 kts 232°
2026-05-09 15:10 -50.28250 -72.05267 641 ft 0 kts 264°
2026-05-09 15:13 -50.28251 -72.05282 641 ft 2 kts 264°
2026-05-09 15:13 -50.28254 -72.05320 641 ft 5 kts 263°
2026-05-09 15:13 -50.28260 -72.05400 641 ft 10 kts 263°
2026-05-09 15:13 -50.28267 -72.05530 641 ft 14 kts 264°
2026-05-09 15:14 -50.28279 -72.05709 641 ft 19 kts 265°
2026-05-09 15:14 -50.28291 -72.05935 641 ft 23 kts 265°
2026-05-09 15:14 -50.28306 -72.06201 641 ft 26 kts 264°
2026-05-09 15:14 -50.28303 -72.06359 642 ft 12 kts 298°
2026-05-09 15:15 -50.28234 -72.06402 641 ft 10 kts 359°
2026-05-09 15:15 -50.28179 -72.06352 642 ft 8 kts 49°
2026-05-09 15:15 -50.28137 -72.06269 643 ft 17 kts 52°
2026-05-09 15:15 -50.28039 -72.05828 642 ft 79 kts 86°
2026-05-09 15:16 -50.27992 -72.04853 645 ft 131 kts 84°
2026-05-09 15:16 -50.27900 -72.03242 943 ft 153 kts 86°
2026-05-09 15:16 -50.27825 -72.01584 1638 ft 154 kts 84°
2026-05-09 15:16 -50.27719 -71.99857 2168 ft 169 kts 84°
2026-05-09 15:17 -50.27596 -71.97920 2472 ft 191 kts 84°
2026-05-09 15:17 -50.27460 -71.95739 2748 ft 214 kts 84°
2026-05-09 15:17 -50.27306 -71.93291 3125 ft 239 kts 83°
2026-05-09 15:17 -50.27136 -71.90583 3619 ft 260 kts 84°
2026-05-09 15:18 -50.26960 -71.87723 4396 ft 269 kts 84°
2026-05-09 15:18 -50.26778 -71.84787 5221 ft 276 kts 84°
2026-05-09 15:18 -50.26596 -71.81777 6037 ft 282 kts 86°
2026-05-09 15:18 -50.26759 -71.78711 6807 ft 288 kts 106°
2026-05-09 15:19 -50.27556 -71.75845 7617 ft 290 kts 126°
2026-05-09 15:19 -50.28902 -71.73517 8433 ft 291 kts 145°
2026-05-09 15:19 -50.30535 -71.71638 9252 ft 295 kts 141°
2026-05-09 15:19 -50.31989 -71.69329 10074 ft 300 kts 137°
2026-05-09 15:20 -50.33459 -71.66925 10572 ft 317 kts 138°
2026-05-09 15:20 -50.36719 -71.61568 11018 ft 364 kts 138°
2026-05-09 15:20 -50.38492 -71.58631 11457 ft 377 kts 138°
2026-05-09 15:21 -50.40301 -71.55632 12110 ft 382 kts 139°
2026-05-09 15:21 -50.42154 -71.52625 12799 ft 386 kts 140°
2026-05-09 15:21 -50.44043 -71.49609 13469 ft 390 kts 140°
2026-05-09 15:21 -50.45959 -71.46574 14107 ft 395 kts 140°
2026-05-09 15:22 -50.47901 -71.43503 14722 ft 399 kts 141°
2026-05-09 15:22 -50.49857 -71.40400 15053 ft 402 kts 140°
2026-05-09 15:22 -50.51829 -71.37256 15122 ft 412 kts 140°
2026-05-09 15:22 -50.53882 -71.33978 15137 ft 431 kts 140°
2026-05-09 15:23 -50.55997 -71.30585 15136 ft 438 kts 140°
2026-05-09 15:23 -50.58123 -71.27154 15138 ft 439 kts 139°
2026-05-09 15:23 -50.60245 -71.23719 15146 ft 439 kts 139°
2026-05-09 15:23 -50.62367 -71.20275 15133 ft 439 kts 139°
2026-05-09 15:24 -50.64487 -71.16827 15134 ft 439 kts 139°
2026-05-09 15:24 -50.66607 -71.13378 15138 ft 439 kts 139°
2026-05-09 15:24 -50.68731 -71.09935 15139 ft 439 kts 139°
2026-05-09 15:24 -50.70821 -71.06529 15111 ft 423 kts 139°
2026-05-09 15:25 -50.72810 -71.03254 15088 ft 407 kts 139°
2026-05-09 15:25 -50.74748 -71.00051 15062 ft 403 kts 139°
2026-05-09 15:25 -50.76684 -70.96854 15046 ft 410 kts 139°
2026-05-09 15:26 -50.80818 -70.90157 14997 ft 435 kts 139°
2026-05-09 15:26 -50.82934 -70.86736 14970 ft 436 kts 139°
2026-05-09 15:26 -50.85049 -70.83302 14945 ft 437 kts 139°
2026-05-09 15:26 -50.87159 -70.79865 14922 ft 437 kts 139°
2026-05-09 15:27 -50.89269 -70.76420 14897 ft 437 kts 139°
2026-05-09 15:27 -50.91376 -70.72973 14922 ft 435 kts 139°
2026-05-09 15:27 -50.93483 -70.69521 15078 ft 437 kts 139°
2026-05-09 15:27 -50.95594 -70.66059 15111 ft 438 kts 139°
2026-05-09 15:28 -50.97711 -70.62590 15119 ft 438 kts 139°
2026-05-09 15:28 -50.99825 -70.59120 15123 ft 439 kts 139°
2026-05-09 15:28 -51.01941 -70.55644 15118 ft 439 kts 139°
2026-05-09 15:28 -51.03971 -70.52017 15120 ft 442 kts 131°
2026-05-09 15:29 -51.05619 -70.47872 15120 ft 448 kts 121°
2026-05-09 15:29 -51.06807 -70.43281 15122 ft 453 kts 110°
2026-05-09 15:29 -51.07736 -70.38510 15118 ft 453 kts 110°
2026-05-09 15:29 -51.08664 -70.33733 15122 ft 453 kts 110°
2026-05-09 15:30 -51.09594 -70.28951 15123 ft 453 kts 110°
2026-05-09 15:30 -51.10526 -70.24166 15123 ft 454 kts 110°
2026-05-09 15:30 -51.11459 -70.19377 15119 ft 454 kts 110°
2026-05-09 15:30 -51.12388 -70.14590 15128 ft 454 kts 110°
2026-05-09 15:31 -51.13312 -70.09796 15123 ft 454 kts 110°
2026-05-09 15:31 -51.14234 -70.05002 15121 ft 454 kts 110°
2026-05-09 15:31 -51.15061 -70.00696 15128 ft 454 kts 110°
2026-05-09 15:31 -51.15772 -69.96977 15131 ft 454 kts 110°
2026-05-09 15:32 -51.16686 -69.92186 15084 ft 449 kts 110°
2026-05-09 15:32 -51.17574 -69.87506 14832 ft 437 kts 110°
2026-05-09 15:32 -51.18447 -69.82903 14582 ft 433 kts 110°
2026-05-09 15:32 -51.19312 -69.78338 14283 ft 428 kts 110°
2026-05-09 15:33 -51.20165 -69.73833 13696 ft 424 kts 110°
2026-05-09 15:33 -51.21010 -69.69365 13075 ft 420 kts 110°
2026-05-09 15:33 -51.21848 -69.64932 12442 ft 416 kts 110°
2026-05-09 15:33 -51.22677 -69.60541 11769 ft 412 kts 110°
2026-05-09 15:34 -51.23477 -69.56269 11242 ft 390 kts 109°
2026-05-09 15:34 -51.24213 -69.52293 11082 ft 360 kts 109°
2026-05-09 15:34 -51.24890 -69.48609 10955 ft 335 kts 109°
2026-05-09 15:34 -51.25529 -69.45134 10800 ft 322 kts 109°
2026-05-09 15:35 -51.26154 -69.41750 10550 ft 316 kts 110°
2026-05-09 15:35 -51.26776 -69.38415 10293 ft 312 kts 110°
2026-05-09 15:35 -51.27395 -69.35106 10053 ft 311 kts 109°
2026-05-09 15:35 -51.28012 -69.31813 9921 ft 310 kts 109°
2026-05-09 15:36 -51.28627 -69.28515 9800 ft 310 kts 109°
2026-05-09 15:36 -51.29236 -69.25225 9672 ft 309 kts 109°
2026-05-09 15:36 -51.29841 -69.21944 9540 ft 308 kts 109°
2026-05-09 15:36 -51.30441 -69.18665 9134 ft 309 kts 108°
2026-05-09 15:37 -51.31037 -69.15377 8671 ft 309 kts 108°
2026-05-09 15:37 -51.31639 -69.12080 8304 ft 306 kts 108°
2026-05-09 15:37 -51.32231 -69.08829 7776 ft 305 kts 108°
2026-05-09 15:37 -51.32821 -69.05601 7453 ft 302 kts 108°
2026-05-09 15:38 -51.33412 -69.02371 7031 ft 301 kts 107°
2026-05-09 15:38 -51.34028 -68.99213 6681 ft 296 kts 114°
2026-05-09 15:38 -51.35156 -68.96568 6074 ft 285 kts 141°
2026-05-09 15:38 -51.36806 -68.94967 5544 ft 275 kts 165°
2026-05-09 15:39 -51.38667 -68.94537 5110 ft 269 kts 188°
2026-05-09 15:39 -51.40490 -68.95019 4699 ft 265 kts 194°
2026-05-09 15:39 -51.42304 -68.95579 4286 ft 266 kts 194°
2026-05-09 15:39 -51.44116 -68.96146 3852 ft 267 kts 194°
2026-05-09 15:40 -51.45941 -68.96718 3375 ft 269 kts 194°
2026-05-09 15:40 -51.47753 -68.97280 3180 ft 259 kts 194°
2026-05-09 15:40 -51.49478 -68.97812 3050 ft 248 kts 194°
2026-05-09 15:40 -51.51143 -68.98327 2898 ft 242 kts 194°
2026-05-09 15:41 -51.52086 -68.98609 2857 ft 235 kts 194°
2026-05-09 15:41 -51.53663 -68.99216 2567 ft 233 kts 199°
2026-05-09 15:41 -51.55196 -68.99937 2458 ft 225 kts 200°
2026-05-09 15:41 -51.56650 -69.00648 2370 ft 214 kts 200°
2026-05-09 15:42 -51.57943 -69.01623 2296 ft 197 kts 219°
2026-05-09 15:42 -51.58879 -69.03080 2206 ft 180 kts 238°
2026-05-09 15:42 -51.59432 -69.04720 2194 ft 158 kts 255°
2026-05-09 15:42 -51.59661 -69.06371 2199 ft 148 kts 270°
2026-05-09 15:43 -51.59741 -69.08000 2206 ft 146 kts 270°
2026-05-09 15:43 -51.59822 -69.09607 2222 ft 144 kts 270°
2026-05-09 15:43 -51.59902 -69.11211 2131 ft 144 kts 270°
2026-05-09 15:43 -51.59983 -69.12814 1980 ft 144 kts 269°
2026-05-09 15:44 -51.60062 -69.14419 1800 ft 144 kts 269°
2026-05-09 15:44 -51.60141 -69.16008 1621 ft 144 kts 269°
2026-05-09 15:44 -51.60220 -69.17606 1433 ft 144 kts 269°
2026-05-09 15:44 -51.60299 -69.19210 1250 ft 144 kts 268°
2026-05-09 15:45 -51.60378 -69.20818 1041 ft 144 kts 268°
2026-05-09 15:45 -51.60456 -69.22417 870 ft 144 kts 268°
2026-05-09 15:45 -51.60534 -69.24021 676 ft 144 kts 268°
2026-05-09 15:45 -51.60611 -69.25621 469 ft 143 kts 266°
2026-05-09 15:46 -51.60689 -69.27224 291 ft 145 kts 267°
2026-05-09 15:46 -51.60774 -69.28809 81 ft 144 kts 267°
2026-05-09 15:46 -51.60838 -69.30229 50 ft 104 kts 265°
2026-05-09 15:46 -51.60878 -69.31118 52 ft 64 kts 265°
2026-05-09 15:47 -51.60908 -69.31671 51 ft 38 kts 266°
2026-05-09 15:47 -51.60927 -69.32082 51 ft 34 kts 265°
2026-05-09 15:47 -51.60942 -69.32321 51 ft 16 kts 255°
2026-05-09 15:47 -51.61030 -69.32387 50 ft 10 kts 177°
2026-05-09 15:48 -51.61105 -69.32345 47 ft 14 kts 130°
2026-05-09 15:48 -51.61113 -69.32167 50 ft 19 kts 83°
2026-05-09 15:48 -51.61089 -69.31940 50 ft 23 kts 89°
2026-05-09 15:48 -51.61089 -69.31663 50 ft 27 kts 86°
2026-05-09 15:49 -51.61077 -69.31362 50 ft 21 kts 85°
2026-05-09 15:49 -51.61066 -69.31100 50 ft 26 kts 86°
2026-05-09 15:49 -51.61053 -69.30826 50 ft 9 kts 85°
2026-05-09 15:49 -51.61047 -69.30693 50 ft 15 kts 86°
2026-05-09 15:50 -51.61077 -69.30559 48 ft 10 kts 128°
2026-05-09 15:50 -51.61114 -69.30485 50 ft 6 kts 129°
2026-05-09 15:50 -51.61129 -69.30461 50 ft 1 kts 157°
2026-05-09 15:50 -51.61141 -69.30471 50 ft 0 kts 218°
2026-05-09 15:51 -51.61143 -69.30479 50 ft 2 kts 240°
2026-05-09 15:51 -51.61144 -69.30489 50 ft 0 kts 261°
2026-05-09 15:51 -51.61146 -69.30503 50 ft 0 kts 264°
2026-05-09 15:51 -51.61147 -69.30514 49 ft 2 kts 262°
2026-05-09 15:52 -51.61147 -69.30520 50 ft 0 kts 262°